Weather Roundup
Issued by NWS

Home | Current Version | Previous Version | Text Only | Print | Product List | Glossary On
Versions: 1 2 3 4 5 6 7 8 9 10 11 12 13 14 15 16 17 18 19 20 21 22 23 24 25 26 27 28 29 30 31 32 33 34 35 36 37 38 39 40 41 42 43 44 45 46 47 48 49 50
000
NZUS93 KARX 230959
HRRWXR

CURRENT HOURLY OBSERVATIONS ACROSS
MUCH OF THE UPPER MISSISSIPPI VALLEY
NATIONAL WEATHER SERVICE LA CROSSE WI
400 AM CST THU FEB 23 2017


...SOUTHEAST MINNESOTA...


CITY           SKY/WX    TMP DP  RH WIND       PRES   REMARKS
ROCHESTER      CLOUDY    35  33  92 N16       29.79S WCI  25
ROCHESTER/MAYO CLOUDY    36  33  88 NW6G16    29.80F WCI  31
WINONA         CLOUDY    39  34  81 NW8       29.79S WCI  34
AUSTIN         CLOUDY    36  32  87 N12       29.80R WCI  27
ALBERT LEA     CLOUDY    36  34  93 N13G20    29.82R WCI  27
DODGE CENTER   NOT AVBL
PRESTON        CLOUDY    36  33  89 N15G21    29.77S WCI  26
OWATONNA       CLOUDY    36  30  80 N7        29.84R WCI  30
FARIBAULT      CLOUDY    36  30  80 N14       29.83S WCI  27
$$

...ELSEWHERE IN MINNESOTA...


CITY           SKY/WX    TMP DP  RH WIND       PRES   REMARKS
MINNEAPOLIS    CLOUDY    35  28  75 N16       29.85S WCI  25
INTNL FALLS    CLOUDY    25  16  68 NW9       29.91S WCI  15
DULUTH         PTCLDY    26  24  92 N8        29.82S WCI  18
RED WING       CLOUDY    37  30  75 N7        29.81S WCI  32
REDWOOD FALLS  PTCLDY    32  25  75 N9        29.86S WCI  24
MANKATO          N/A     34  29  82 N8        29.87R WCI  27
WORTHINGTON    CLOUDY    31  30  96 N15G25    29.85F FOG     WCI  20
FAIRMONT       CLOUDY    35  31  85 N13       29.84S WCI  26
$$

...SOUTHWEST WISCONSIN...


CITY           SKY/WX    TMP DP  RH WIND       PRES   REMARKS
LA CROSSE      CLOUDY    42  35  76 N18       29.77R
PRAIRIE DU CHI PTCLDY    42  36  78 NW3       29.75S
BOSCOBEL       PTCLDY    45  38  76 NW7       29.75R
LONE ROCK      NOT AVBL
PLATTEVILLE    CLEAR     43  41  95 NW12      29.72F
FORT MC COY    CLOUDY    40  36  83 N14       29.76R WCI  33
MAUSTON-NEW LI PTSUNNY   43  38  82 NW17G25   29.70R
VIROQUA        CLOUDY    40  37  89 W6        29.75R
WIS DELLS      PTCLDY    46  37  73 NW10G16   29.70R
$$

...ELSEWHERE IN WISCONSIN...


CITY           SKY/WX    TMP DP  RH WIND       PRES   REMARKS
MILWAUKEE      CLEAR     51  42  71 W14       29.66R
MADISON        MOCLDY    45  40  82 VRB5      29.71R
GREEN BAY      CLOUDY    39  39 100 N6        29.67R FOG     WCI  35
EAU CLAIRE     NOT AVBL
BLACK RVR FLS  CLOUDY    39  32  73 N15       29.76R WCI  31
MEDFORD        CLOUDY    33  31  90 N12       29.73S WCI  25
WAUSAU         CLOUDY    36  31  82 N14G21    29.71R WCI  27
WIS RAPIDS     CLOUDY    40  36  86 N12G21    29.72R WCI  33
MARSHFIELD     CLOUDY    36  31  82 N15G21    29.72R WCI  27
RICE LAKE      CLOUDY    35  32  90 NW7       29.83S WCI  29
$$

...NORTHEAST IOWA...


CITY           SKY/WX    TMP DP  RH WIND       PRES   REMARKS
WATERLOO       CLOUDY    41  36  82 N13       29.78S
DUBUQUE        MOCLDY    42  39  89 NW13      29.75R
DECORAH        CLOUDY    39  36  87 N13       29.75F WCI  32
MASON CITY     CLOUDY    36  33  89 N15       29.83R WCI  27
CHARLES CITY   CLOUDY    39  39 100 N16       29.77F WCI  30
OELWEIN        CLOUDY    41  39  93 N18G25    29.77S
$$

...ELSEWHERE IN IOWA...


CITY           SKY/WX    TMP DP  RH WIND       PRES   REMARKS
DES MOINES     CLOUDY    41  37  86 N14       29.78S
IOWA CITY      CLOUDY    45  40  82 N17G23    29.77S
FORT DODGE     CLOUDY    36  30  80 N12G17    29.84R WCI  27
MARSHALLTOWN   CLOUDY    40  37  89 N12       29.80R WCI  33
CEDAR RAPIDS   CLOUDY    42  40  92 N16       29.75F
$$

...NORTHERN ILLINOIS...


CITY           SKY/WX    TMP DP  RH WIND       PRES   REMARKS
CHICAGO-OHARE  CLEAR     50  45  83 W5        29.68R
CHICAGO-MIDWAY CLEAR     52  46  80 W7        29.69R
MOLINE         PTCLDY   N/A N/A N/A NW12      29.75R
ROCKFORD       CLEAR     47  42  83 NW8       29.73R
PEORIA         CLEAR     48  47  96 N6        29.72S
$$

NOTE: "FAIR" INDICATES FEW OR NO CLOUDS BELOW 12,000 FEET WITH NO
SIGNIFICANT WEATHER AND/OR OBSTRUCTIONS TO VISIBILITY. WIND
SPEEDS ARE IN MILES-PER-HOUR.




USA.gov is the U.S. government's official web portal to all federal, state and local government web resources and services.